Weather Roundup
Issued by NWS Springfield, MO

Home | Current Version | Previous Version | Text Only | Print | Product List | Glossary On
Versions: 1 2 3 4 5 6 7 8 9 10 11 12 13 14 15 16 17 18 19 20 21 22 23 24 25 26 27 28 29 30 31 32 33 34 35 36 37 38 39 40 41 42 43 44 45 46 47 48 49 50
000
NZUS99 KSGF 240807
HRRSGF

HOURLY WEATHER
NATIONAL WEATHER SERVICE SPRINGFIELD MO
300 AM CDT THU JUL 24 2014

......SGF CWA......

CITY           SKY/WX    TMP DP  RH WIND       PRES   REMARKS
SPRINGFIELD    CLEAR     70  65  84 NE7       30.08F
JOPLIN         CLEAR     69  66  90 NE6       30.07F
WEST PLAINS    CLEAR     69  65  86 NE7       30.09S
ROLLA          CLEAR     63  59  87 NE6       30.09F
OSAGE BEACH    CLEAR     66  61  82 CALM      30.10S
BRANSON        PTCLDY    68  68 100 CALM      30.09S FOG

......SURROUNDING SGF CWA......

CITY           SKY/WX    TMP DP  RH WIND       PRES   REMARKS
CHANUTE        CLEAR     71  64  78 NE7       30.09F
PARSONS        CLEAR     71  65  81 CALM      30.08F
COFFEYVILLE    CLEAR     68  66  93 CALM      30.06F
EMPORIA        CLEAR     66  64  93 NE5       30.11F
GROVE OK       CLEAR     70  70 100 CALM      30.06F
ROGERS AR      CLEAR     67  64  90 CALM      30.08F
SILOAM SPRINGS CLEAR     66  59  77 CALM      30.08F
HARRISON AR    FOG       69  69 100 NW5       30.08S VSB 1/4
NEAR YELLVILLE CLOUDY    70  68  94 CALM      30.06S

......KANSAS AND MISSOURI......

CITY           SKY/WX    TMP DP  RH WIND       PRES   REMARKS
KANSAS CTY INT PTCLDY    69  60  73 E9        30.13F
DOWNTOWN KC    CLEAR     71  61  70 E8        30.11F
COLUMBIA       CLEAR     62  58  86 NE6       30.12F
SEDALIA        CLEAR     66  60  81 NE3       30.12F
ST JOSEPH      CLEAR     68  60  75 E5        30.14F
ST LOUIS       CLEAR     66  53  63 NE9       30.10F
SPIRIT OF STL  CLEAR     57  56  96 SW3       30.09F
KIRKSVILLE     CLEAR     59  57  93 N3        30.15F
WICHITA        CLEAR     72  65  78 E7        30.10F
TOPEKA         CLEAR     70  64  81 E6        30.12S
OLATHE         CLEAR     68  62  81 E7        30.11F

......TENNESSEE......

CITY           SKY/WX    TMP DP  RH WIND       PRES   REMARKS
MEMPHIS        PTCLDY    72  68  87 VRB7      29.99F
NASHVILLE      PTCLDY    74  69  85 NW8       29.96F

......ARKANSAS.......

CITY           SKY/WX    TMP DP  RH WIND       PRES   REMARKS
FAYETTEVILLE   PTCLDY    63  63 100 CALM      30.07F FOG
FT SMITH       CLEAR     69  68  96 CALM      30.02F
LITTLE ROCK    CLOUDY    71  68  90 NE5       30.02R

......OKLAHOMA.......

CITY           SKY/WX    TMP DP  RH WIND       PRES   REMARKS
TULSA          PTCLDY    69  68  96 W3        30.04F
PONCA CITY     CLEAR     70  68  93 CALM      30.08S
MCALESTER      MOCLDY    70  68  93 N7        30.03F
OKLAHOMA CITY  MOCLDY    75  65  70 CALM      30.06F

......IOWA............

CITY           SKY/WX    TMP DP  RH WIND       PRES   REMARKS
DES MOINES     CLEAR     66  59  78 CALM      30.16S
QUAD CITIES    CLEAR     59  55  87 CALM      30.15F

......ILLINOIS........

CITY           SKY/WX    TMP DP  RH WIND       PRES   REMARKS
QUINCY         CLEAR     61  56  83 NE3       30.13R
CHICAGO        CLEAR     58  50  75 N8        30.13F



USA.gov is the U.S. government's official web portal to all federal, state and local government web resources and services.